Location: Risskov
(56.1972°N, 10.2480°E)
Time: 13:12:53
(UTC+00:00)

Cosmos 2237 Rocket - Pass Details

Date: 05 July 2020
Orbit: 834 x 850 km, 71.0° (Epoch: 06 August)

Event Time Altitude Azimuth Distance (km) Brightness Sun altitude
Exits shadow 22:14:51 - 197° (SSW) 2,726 4.3 -9.8°
Reaches altitude 10° 22:15:32 10° 196° (SSW) 2,472 4.1 -9.8°
Maximum altitude 22:21:07 61° 117° (ESE) 963 2.3 -10.0°
Drops below altitude 10° 22:26:45 10° 39° (NE) 2,490 5.2 -10.2°
Sets 22:29:13 0° 36° (NE) 3,429 6.0 -10.3°
